Date,TemperatureHighF,TemperatureAvgF,TemperatureLowF,DewpointHighF,DewpointAvgF,DewpointLowF,HumidityHigh,HumidityAvg,HumidityLow,PressureMaxIn,PressureMinIn,WindSpeedMaxMPH,WindSpeedAvgMPH,GustSpeedMaxMPH,PrecipitationSumIn
2014-1-1,18,16,13,14,13,10,92,88,81,30.10,29.96,13,4,0,0.00
2014-1-2,15,11,0,12,8,-3,91,86,75,30.17,29.86,13,5,0,0.00
2014-1-3,16,6,-10,9,1,-13,89,81,73,30.23,29.85,16,4,0,0.00
2014-1-4,32,26,15,28,18,9,95,75,66,29.84,29.67,20,8,0,0.00
2014-1-5,31,26,13,29,24,11,96,94,91,29.80,29.54,15,1,0,0.00
2014-1-6,12,-9,-16,10,-12,-20,91,83,77,30.05,29.67,14,7,0,0.00
2014-1-7,1,-7,-14,-4,-11,-18,90,83,76,30.14,30.02,12,6,0,0.00
2014-1-8,18,2,-12,11,-2,-15,91,84,70,30.32,30.08,4,0,0,0.00
2014-1-9,26,7,-10,24,4,-13,94,88,81,30.33,30.01,8,2,0,0.00
2014-1-10,42,34,26,40,33,25,99,96,91,30.01,29.37,14,6,0,1.73
2014-1-11,41,36,32,41,34,28,99,94,83,29.54,29.18,9,5,0,0.23
2014-1-12,42,34,29,32,29,26,89,81,67,29.73,29.49,14,7,0,0.00
2014-1-13,45,41,31,38,34,27,89,75,67,29.54,29.32,14,6,0,0.00
2014-1-14,37,29,22,31,24,18,95,83,64,29.63,29.42,17,6,0,0.03
2014-1-15,24,20,15,19,15,10,91,81,68,29.84,29.63,11,6,0,0.00
2014-1-16,31,25,16,28,20,11,91,84,70,29.74,29.31,17,7,0,0.00
2014-1-17,25,18,13,17,12,7,90,80,72,29.77,29.47,11,5,0,0.00
2014-1-18,19,15,9,16,12,7,91,86,75,29.76,29.56,10,4,0,0.00
2014-1-19,35,22,10,29,18,8,94,85,77,29.64,29.34,20,9,0,0.00
2014-1-20,36,31,19,30,25,14,88,80,70,29.79,29.33,11,5,0,0.00
2014-1-21,19,11,7,14,1,-2,85,65,50,30.00,29.79,17,5,0,0.01
2014-1-22,13,7,1,11,3,-3,89,81,62,29.99,29.68,17,5,0,0.00
2014-1-23,13,5,0,8,2,-4,88,84,79,30.35,29.87,14,7,0,0.00
2014-1-24,21,6,-8,18,1,-12,89,78,65,30.36,29.36,29,13,0,0.04
2014-1-25,29,19,5,28,12,-3,95,73,58,29.64,29.13,22,10,0,0.00
2014-1-26,31,17,4,24,12,-2,91,80,72,29.63,29.15,17,7,0,0.00
2014-1-27,17,2,-11,9,-3,-17,87,80,66,30.19,29.41,17,7,0,0.00
2014-1-28,2,-7,-18,-8,-13,-21,83,75,62,30.20,30.05,15,6,0,0.00
2014-1-29,19,7,-7,7,-2,-10,86,69,47,30.05,29.90,12,5,0,0.00
2014-1-30,32,23,14,26,14,5,83,68,56,29.90,29.47,21,8,0,0.01
2014-1-31,32,27,24,27,22,19,92,80,69,29.91,29.66,9,3,0,0.00
2014-2-1,34,29,24,30,26,22,94,91,86,29.88,29.56,4,0,0,0.00
2014-2-2,27,22,10,24,18,8,89,82,69,30.08,29.83,6,0,0,0.00
2014-2-3,27,9,-5,16,4,-9,91,81,61,30.19,30.04,5,1,0,0.00
2014-2-4,25,14,2,16,8,-1,89,78,51,30.21,29.86,11,2,0,0.00
2014-2-5,24,20,18,19,16,13,90,84,75,30.21,29.70,11,6,0,0.00
2014-2-6,18,4,-7,15,-1,-10,91,82,71,30.21,30.13,14,6,0,0.00
2014-2-7,10,0,-10,1,-6,-13,85,76,62,30.20,30.12,13,6,0,0.00
2014-2-8,19,11,3,14,6,-2,89,80,70,30.17,29.93,6,3,0,0.00
2014-2-9,19,14,4,12,9,1,91,82,63,30.05,29.85,9,2,0,0.00
2014-2-10,14,2,-10,6,-2,-13,89,80,60,30.25,30.05,8,2,0,0.00
2014-2-11,16,-1,-16,6,-7,-19,88,78,62,30.30,30.21,5,1,0,0.00
2014-2-12,25,9,-8,12,2,-11,88,74,52,30.23,29.84,6,1,0,0.00
2014-2-13,31,18,-1,26,10,-5,89,73,55,29.84,29.30,11,4,0,0.00
2014-2-14,27,21,17,20,16,12,89,80,72,29.67,29.32,12,5,0,0.00
2014-2-15,27,20,15,18,14,8,90,80,65,29.85,29.67,12,4,0,0.00
2014-2-16,27,21,15,21,17,12,93,83,71,30.08,29.71,9,3,0,0.00
2014-2-17,25,20,14,24,16,12,94,85,70,30.11,29.46,12,5,0,0.00
2014-2-18,45,34,22,32,27,20,94,76,57,29.79,29.47,17,7,0,0.29
2014-2-19,43,36,30,32,30,27,88,77,60,29.82,29.42,8,4,0,0.00
2014-2-20,50,38,31,49,36,28,98,89,76,29.81,29.08,27,6,0,2.22
2014-2-21,36,33,30,30,25,18,85,72,54,29.65,29.24,26,13,0,0.02
2014-2-22,36,31,23,26,20,12,81,64,49,29.85,29.63,12,5,0,0.00
2014-2-23,29,24,18,20,14,10,78,64,45,29.99,29.84,10,4,0,0.00
2014-2-24,27,19,11,14,10,6,80,68,49,30.04,29.98,12,5,0,0.00
2014-2-25,25,19,12,16,10,3,76,68,57,30.01,29.87,11,5,0,0.00
2014-2-26,16,11,6,6,3,-3,86,69,54,29.98,29.49,22,9,0,0.00
2014-2-27,18,9,-6,11,2,-10,86,73,62,30.02,29.43,19,7,0,0.00
2014-2-28,27,12,-9,15,2,-13,87,66,51,30.06,29.83,14,4,0,0.00
2014-3-1,29,23,15,24,17,11,89,76,59,30.12,29.81,10,3,0,0.00
2014-3-2,21,14,7,14,9,2,87,78,62,30.21,30.06,9,4,0,0.00
2014-3-3,17,7,-6,2,-2,-9,85,68,49,30.31,30.19,8,2,0,0.00
2014-3-4,24,14,5,11,4,0,82,65,53,30.21,29.99,9,2,0,0.00
2014-3-5,27,20,9,17,13,5,87,74,64,30.27,30.06,9,3,0,0.00
2014-3-6,31,22,14,17,12,7,77,66,56,30.27,29.95,7,3,0,0.08
2014-3-7,46,30,11,30,20,8,90,70,44,29.93,29.68,10,2,0,0.02
2014-3-8,36,30,19,32,25,16,91,83,73,30.07,29.77,10,4,0,0.08
2014-3-9,38,26,11,31,21,8,92,81,64,30.08,29.70,17,6,0,0.02
2014-3-10,51,43,37,40,35,31,89,74,61,29.69,29.44,17,9,0,0.00
2014-3-11,51,41,35,41,36,32,96,82,63,29.51,29.43,9,2,0,0.00
2014-3-12,39,27,15,34,22,10,95,83,72,29.90,29.39,11,4,0,0.07
2014-3-13,33,17,-1,26,12,-4,89,79,68,29.96,29.74,10,3,0,0.00
2014-3-14,52,42,33,39,32,26,78,67,54,29.73,29.38,22,10,0,0.12
2014-3-15,38,34,29,31,26,19,81,72,64,30.05,29.65,9,5,0,0.00
2014-3-16,29,23,17,20,10,3,67,55,48,30.14,29.97,17,8,0,0.00
2014-3-17,37,24,11,23,13,4,77,63,51,29.97,29.61,9,4,0,0.00
2014-3-18,49,37,25,37,29,21,86,73,59,29.75,29.50,10,4,0,0.00
2014-3-19,46,42,35,43,37,28,91,85,75,29.77,29.40,13,6,0,0.62
2014-3-20,44,35,28,31,27,22,84,71,55,29.86,29.77,13,4,0,0.00
2014-3-21,54,41,27,41,33,24,91,76,58,29.87,29.48,9,3,0,0.06
2014-3-22,45,37,28,40,29,22,86,75,62,30.09,29.55,16,6,0,0.02
2014-3-23,30,24,14,21,14,9,83,66,50,30.20,30.09,11,4,0,0.00
2014-3-24,34,21,13,17,12,6,90,69,30,30.19,29.92,11,2,0,0.00
2014-3-25,29,24,19,23,14,10,89,65,52,30.03,29.78,18,6,0,0.00
2014-3-26,38,29,15,19,16,10,90,59,41,30.17,29.90,11,4,0,0.00
2014-3-27,48,39,33,41,30,18,86,70,47,29.90,29.37,12,7,0,0.22
2014-3-28,53,40,30,46,34,25,90,79,70,30.00,29.30,29,10,0,0.12
2014-3-29,40,33,26,32,28,23,90,83,72,30.04,29.91,14,4,0,0.00
2014-3-30,56,38,20,33,26,17,93,67,38,30.08,29.89,9,2,0,0.00
2014-3-31,67,51,36,39,34,29,76,55,32,29.93,29.63,18,7,0,0.00
2014-4-1,58,48,39,43,33,26,71,57,46,29.88,29.52,20,9,0,0.01
2014-4-2,54,45,32,34,31,27,81,59,44,29.98,29.86,7,3,0,0.00
2014-4-3,50,41,35,39,34,29,92,79,45,29.88,29.51,14,6,0,1.92
2014-4-4,46,40,36,45,35,28,97,84,70,29.73,29.26,18,7,0,0.02
2014-4-5,46,38,30,28,24,19,74,59,34,30.02,29.74,18,5,0,0.42
2014-4-6,56,42,26,34,27,19,84,58,38,30.01,29.77,8,2,0,0.00
2014-4-7,52,42,36,39,32,29,89,69,43,29.79,29.38,10,3,0,0.09
2014-4-8,53,43,33,39,34,29,87,72,54,29.70,29.41,11,4,0,0.01
2014-4-9,61,46,27,38,33,25,94,64,36,29.84,29.70,14,4,0,0.00
2014-4-10,67,56,45,46,41,34,87,58,45,29.74,29.49,23,7,0,0.00
2014-4-11,70,53,34,42,33,25,96,57,22,29.84,29.71,8,2,0,0.00
2014-4-12,77,63,48,56,44,32,62,51,38,29.86,29.51,28,7,0,0.00
2014-4-13,71,66,61,58,55,51,78,68,62,29.55,29.42,17,8,0,0.01
2014-4-14,64,41,29,57,36,26,91,84,77,29.73,29.18,20,10,0,0.07
2014-4-15,36,30,24,26,18,11,87,63,39,30.04,29.74,14,6,0,0.00
2014-4-16,50,38,24,27,22,16,76,54,38,30.18,30.01,13,5,0,0.00
2014-4-17,67,52,37,42,34,26,71,52,39,30.05,30.00,17,7,0,0.00
2014-4-18,62,50,34,43,38,25,85,66,47,30.15,30.05,11,4,0,0.00
2014-4-19,66,49,32,41,34,24,83,58,39,30.22,30.07,11,3,0,0.00
2014-4-20,78,59,39,42,35,28,68,44,25,30.11,29.86,11,3,0,0.00
2014-4-21,78,64,51,57,43,34,94,49,38,29.86,29.58,20,4,0,0.43
2014-4-22,50,44,36,47,33,29,90,66,54,29.84,29.58,16,8,0,0.10
2014-4-23,56,43,31,37,31,27,83,65,44,29.97,29.84,8,4,0,0.00
2014-4-24,61,54,44,38,32,28,63,45,31,29.90,29.54,12,5,0,0.00
2014-4-25,68,53,44,44,41,35,94,66,36,29.63,29.42,14,5,0,0.32
2014-4-26,54,48,39,42,37,32,80,66,45,29.81,29.62,10,4,0,0.00
2014-4-27,64,51,40,40,36,31,80,58,40,29.90,29.67,12,6,0,0.00
2014-4-28,54,49,46,46,40,31,89,71,50,29.72,29.40,14,7,0,0.13
2014-4-29,74,58,48,55,48,42,99,72,36,29.47,29.27,27,6,0,0.05
2014-4-30,59,52,40,48,44,34,89,75,59,29.65,29.48,12,5,0,0.00
2014-5-1,48,45,40,43,40,34,90,83,76,29.64,29.54,19,8,0,0.13
2014-5-2,53,48,43,45,43,41,94,83,65,29.64,29.58,12,6,0,0.00
2014-5-3,66,55,45,46,42,38,92,65,39,29.65,29.47,17,7,0,0.07
2014-5-4,54,50,38,42,33,28,70,53,39,29.89,29.65,12,5,0,0.00
2014-5-5,63,52,39,40,35,30,71,54,40,29.88,29.69,12,3,0,0.00
2014-5-6,70,56,40,46,40,33,77,55,39,29.84,29.68,11,4,0,0.00
2014-5-7,85,66,52,65,49,36,70,54,47,29.73,29.55,12,4,0,0.00
2014-5-8,91,77,61,67,61,55,80,60,42,29.69,29.56,16,6,0,0.00
2014-5-9,78,69,59,65,61,48,93,75,52,29.65,29.48,19,8,0,0.53
2014-5-10,77,58,45,52,47,44,95,68,31,29.78,29.65,10,2,0,0.00
2014-5-11,86,65,50,65,53,43,97,67,43,29.81,29.62,11,3,0,0.95
2014-5-12,84,73,61,72,67,60,95,82,67,29.76,29.64,14,6,0,0.01
2014-5-13,75,66,54,68,62,50,99,88,76,29.94,29.66,14,4,0,0.79
2014-5-14,55,51,46,50,47,45,98,87,74,29.96,29.69,7,3,0,0.50
2014-5-15,50,44,36,49,41,35,99,90,68,29.86,29.56,12,4,0,0.18
2014-5-16,44,39,33,40,37,33,99,91,83,29.90,29.81,7,2,0,0.04
2014-5-17,61,47,34,42,37,33,98,73,41,29.99,29.89,10,2,0,0.02
2014-5-18,71,54,37,44,40,35,91,62,37,30.08,29.98,10,3,0,0.00
2014-5-19,72,59,42,49,43,38,85,58,39,30.08,29.81,10,3,0,0.00
2014-5-20,86,73,59,68,60,48,96,66,55,29.86,29.61,12,6,0,0.86
2014-5-21,85,72,63,71,64,59,98,78,46,29.68,29.60,7,2,0,0.06
2014-5-22,68,61,52,60,52,48,89,73,61,29.93,29.68,9,3,0,0.00
2014-5-23,67,56,45,52,48,44,99,77,53,30.00,29.91,9,2,0,0.00
2014-5-24,78,57,42,57,49,42,99,79,44,30.04,29.92,5,1,0,0.00
2014-5-25,87,68,51,60,55,50,99,66,35,29.95,29.80,8,2,0,0.00
2014-5-26,89,73,58,69,62,52,99,70,46,29.88,29.68,8,2,0,2.05
2014-5-27,86,71,66,72,67,63,99,88,61,29.79,29.62,9,2,0,0.06
2014-5-28,78,68,60,70,64,58,99,88,75,29.84,29.71,8,2,0,0.23
2014-5-29,81,70,60,65,61,57,99,76,52,29.91,29.80,12,2,0,0.00
2014-5-30,85,70,58,62,58,53,93,68,45,29.99,29.88,9,2,0,0.00
2014-5-31,92,72,57,63,59,54,98,68,38,30.00,29.85,8,1,0,0.00
2014-6-1,90,75,63,70,61,54,74,63,40,29.91,29.69,9,4,0,0.00
2014-6-2,83,75,71,74,68,66,98,80,60,29.77,29.58,16,7,0,0.17
2014-6-3,79,72,61,68,61,52,92,71,42,29.73,29.64,10,4,0,0.00
2014-6-4,65,61,57,60,56,52,96,82,68,29.72,29.57,8,2,0,0.76
2014-6-5,76,62,49,56,52,48,99,72,39,29.77,29.69,8,2,0,0.00
2014-6-6,83,62,50,58,52,48,97,73,36,29.81,29.72,4,1,0,0.00
2014-6-7,85,69,53,62,57,51,98,69,41,29.83,29.59,8,1,0,0.00
2014-6-8,71,65,54,64,59,51,97,83,69,29.81,29.57,8,4,0,0.75
2014-6-9,82,74,53,65,62,51,95,68,52,29.80,29.69,7,2,0,0.00
2014-6-10,75,66,61,65,62,59,99,86,71,29.72,29.57,6,2,0,0.09
2014-6-11,79,68,62,68,65,61,99,91,66,29.56,29.46,10,3,0,0.36
2014-6-12,83,69,61,66,62,59,97,80,57,29.63,29.52,8,2,0,0.00
2014-6-13,68,62,50,60,49,44,87,63,42,29.85,29.64,9,2,0,0.00
2014-6-14,83,64,44,52,48,43,97,62,35,29.94,29.80,7,1,0,0.00
2014-6-15,86,71,57,67,57,48,73,62,47,29.85,29.63,13,4,0,0.00
2014-6-16,90,79,68,70,68,65,92,70,51,29.88,29.72,10,3,0,0.00
2014-6-17,93,81,71,77,71,68,99,75,57,29.74,29.59,19,6,0,0.98
2014-6-18,88,74,66,76,70,64,98,86,66,29.80,29.64,10,4,0,1.14
2014-6-19,85,73,64,71,68,64,99,85,63,29.88,29.79,7,2,0,0.10
2014-6-20,83,73,66,73,68,66,99,87,70,29.86,29.67,8,2,0,0.64
2014-6-21,84,71,64,72,67,64,99,88,66,29.79,29.64,12,2,0,0.44
2014-6-22,91,74,63,75,68,63,99,85,57,29.72,29.63,5,1,0,0.00
2014-6-23,87,73,68,77,70,66,99,92,72,29.68,29.57,13,2,0,0.84
2014-6-24,81,73,68,73,70,68,99,92,76,29.68,29.62,6,2,0,0.88
2014-6-25,82,71,62,74,68,61,99,91,73,29.83,29.68,7,2,0,0.00
2014-6-26,80,68,60,71,65,60,99,91,73,29.88,29.77,4,1,0,0.00
2014-6-27,90,75,61,75,69,61,99,82,58,29.88,29.78,5,1,0,0.00
2014-6-28,88,77,69,78,72,66,93,84,72,29.87,29.74,6,2,0,0.00
2014-6-29,88,79,72,78,73,70,94,84,69,29.80,29.69,10,5,0,0.00
2014-6-30,86,76,68,79,72,66,98,89,75,29.77,29.46,14,5,0,0.23
2014-7-1,84,74,65,73,68,64,99,83,60,29.59,29.40,11,5,0,0.77
2014-7-2,75,67,59,66,62,55,96,84,65,29.80,29.57,8,3,0,0.00
2014-7-3,71,62,53,58,54,49,96,76,49,30.00,29.80,8,2,0,0.04
2014-7-4,78,64,49,60,54,49,98,74,43,30.11,30.00,5,1,0,0.00
2014-7-5,79,66,51,63,58,50,98,75,49,30.10,29.88,9,2,0,0.00
2014-7-6,83,73,64,76,68,59,89,83,78,29.88,29.55,13,5,0,0.00
2014-7-7,86,77,69,77,72,67,95,87,71,29.59,29.49,13,4,0,0.13
2014-7-8,83,74,68,73,68,63,99,82,57,29.59,29.37,11,3,0,0.13
2014-7-9,76,68,59,66,61,57,98,81,62,29.84,29.60,7,2,0,0.00
2014-7-10,77,65,53,62,58,52,99,78,53,29.99,29.85,7,1,0,0.00
2014-7-11,84,68,53,68,60,52,98,78,52,30.03,29.89,7,1,0,0.00
2014-7-12,78,73,68,74,69,64,97,88,79,29.96,29.68,10,3,0,0.19
2014-7-13,89,76,71,75,70,66,98,84,51,29.72,29.63,9,2,0,0.51
2014-7-14,83,71,63,70,66,61,99,86,58,29.68,29.55,8,2,0,0.61
2014-7-15,68,61,55,61,56,53,99,84,66,29.75,29.59,13,2,0,0.00
2014-7-16,69,60,52,59,55,50,99,85,67,29.85,29.74,6,1,0,0.00
2014-7-17,80,62,46,62,53,46,99,76,43,29.94,29.85,6,1,0,0.00
2014-7-18,81,66,52,62,57,51,99,76,49,30.00,29.88,5,1,0,0.00
2014-7-19,83,67,52,70,60,51,99,82,58,29.90,29.77,5,1,0,0.00
2014-7-20,86,70,56,73,63,56,99,81,53,29.89,29.77,6,0,0,0.00
2014-7-21,87,73,58,71,66,58,98,80,56,29.92,29.83,5,1,0,0.00
2014-7-22,88,76,63,76,70,62,99,84,66,29.89,29.75,10,4,0,0.00
2014-7-23,77,68,56,73,63,54,99,86,75,29.91,29.76,9,4,0,0.22
2014-7-24,75,63,54,61,57,52,98,81,57,29.96,29.83,7,2,0,0.00
2014-7-25,77,63,50,65,58,49,99,84,64,29.90,29.73,11,2,0,0.00
2014-7-26,79,70,61,74,67,59,99,88,81,29.76,29.57,8,2,0,0.00
2014-7-27,86,73,64,76,69,60,99,88,62,29.64,29.44,9,2,0,0.25
2014-7-28,64,60,52,61,56,50,93,87,76,29.85,29.63,10,4,0,0.00
2014-7-29,76,62,48,65,57,48,99,85,65,29.85,29.77,9,2,0,0.00
2014-7-30,77,66,59,64,61,58,96,82,61,29.83,29.75,8,1,0,0.05
2014-7-31,83,66,53,68,60,53,99,85,57,29.85,29.79,7,2,0,0.00
2014-8-1,80,68,59,72,65,59,99,90,73,29.90,29.83,4,1,0,0.10
2014-8-2,83,67,54,70,62,54,99,85,58,29.95,29.87,4,1,0,0.01
2014-8-3,85,69,53,71,63,53,99,83,57,29.98,29.84,5,1,0,0.00
2014-8-4,86,73,61,73,68,61,99,85,58,29.91,29.81,4,1,0,0.00
2014-8-5,79,71,64,74,69,64,99,93,83,29.86,29.79,10,1,0,0.28
2014-8-6,81,69,59,72,64,59,99,87,56,29.87,29.79,7,1,0,0.00
2014-8-7,82,69,55,69,62,55,99,83,57,29.91,29.82,5,1,0,0.00
2014-8-8,84,69,58,66,61,58,99,79,47,29.90,29.81,7,2,0,0.00
2014-8-9,82,70,61,66,62,58,92,77,57,29.90,29.81,10,3,0,0.00
2014-8-10,88,75,62,76,68,58,91,79,65,29.86,29.72,8,2,0,0.00
2014-8-11,81,72,66,74,69,65,98,89,75,29.74,29.55,4,1,0,0.16
2014-8-12,68,63,57,67,63,56,99,98,95,29.76,29.49,9,2,0,0.18
2014-8-13,77,63,53,67,60,53,99,90,66,29.82,29.75,7,1,0,0.01
2014-8-14,71,60,49,59,54,48,99,81,55,29.89,29.80,9,2,0,0.00
2014-8-15,81,59,43,58,51,42,99,78,43,29.91,29.77,6,1,0,0.00
2014-8-16,82,67,52,74,63,51,96,88,77,29.79,29.67,10,2,0,0.00
2014-8-17,85,71,63,75,68,62,99,91,70,29.76,29.69,5,1,0,0.00
2014-8-18,86,72,67,75,70,66,99,91,70,29.74,29.58,5,1,0,0.00
2014-8-19,84,72,65,76,70,65,99,93,78,29.61,29.51,12,4,0,0.50
2014-8-20,90,75,63,74,70,63,99,85,58,29.77,29.56,8,2,0,0.01